Location: Clermont
(50.2608°N, 4.3172°E)
Time: 04:51:05
(UTC+00:00)

CENTAUR R/B - Pass Details

Date: 13 August 2020
Orbit: 754 x 1434 km, 63.5° (Epoch: 17 September)

Event Time Altitude Azimuth Distance (km) Brightness Sun altitude
Rises 20:38:16 0° 202° (SSW) 3,407 5.1 -13.3°
Reaches altitude 10° 20:40:37 10° 198° (SSW) 2,547 4.4 -13.6°
Maximum altitude 20:46:22 54° 122° (ESE) 1,194 2.6 -14.2°
Drops below altitude 10° 20:53:12 10° 48° (NE) 3,016 5.0 -15.0°
Sets 20:56:11 0° 44° (NE) 4,088 5.8 -15.3°
